TimePST,TemperatureF,Dew PointF,Humidity,Sea Level PressureIn,VisibilityMPH,Wind Direction,Wind SpeedMPH,Gust SpeedMPH,PrecipitationIn,Events,Conditions,WindDirDegrees,DateUTC
12:56 AM,33.1,17.1,52,30.11,10.0,Variable,3.5,-,N/A,,Clear,0,2012-11-28 08:56:00
1:56 AM,33.1,18.0,54,30.10,10.0,North,4.6,-,N/A,,Clear,350,2012-11-28 09:56:00
2:56 AM,27.0,15.1,61,30.09,10.0,ENE,5.8,-,N/A,,Clear,60,2012-11-28 10:56:00
3:56 AM,28.0,17.1,63,30.07,10.0,West,6.9,-,N/A,,Clear,280,2012-11-28 11:56:00
4:56 AM,25.0,15.1,66,30.08,10.0,NNW,6.9,-,N/A,,Clear,340,2012-11-28 12:56:00
5:56 AM,25.0,16.0,69,30.09,10.0,WNW,4.6,-,N/A,,Clear,300,2012-11-28 13:56:00
6:56 AM,24.8,15.8,69,30.10,10.0,Variable,3.5,-,N/A,,Clear,0,2012-11-28 14:56:00
7:56 AM,32.0,19.0,59,30.08,10.0,Calm,Calm,-,N/A,,Clear,0,2012-11-28 15:56:00
8:56 AM,39.0,19.9,46,30.08,10.0,Variable,4.6,-,N/A,,Clear,0,2012-11-28 16:56:00
9:56 AM,54.0,23.0,30,30.00,10.0,SE,13.8,-,N/A,,Clear,130,2012-11-28 17:56:00
10:56 AM,59.0,24.1,26,29.93,10.0,South,25.3,36.8,N/A,,Clear,170,2012-11-28 18:56:00
11:56 AM,60.1,24.1,25,29.89,10.0,South,24.2,33.4,N/A,,Partly Cloudy,170,2012-11-28 19:56:00
12:56 PM,62.1,25.0,24,29.95,10.0,SSW,8.1,-,N/A,,Overcast,210,2012-11-28 20:56:00
1:37 PM,57.2,35.6,44,29.98,10.0,WNW,13.8,-,0.00,Rain,Light Rain,290,2012-11-28 21:37:00
1:56 PM,57.0,35.1,44,29.96,10.0,WNW,10.4,-,0.00,,Overcast,300,2012-11-28 21:56:00
2:56 PM,55.0,37.0,51,29.99,10.0,NNE,11.5,-,0.00,,Overcast,20,2012-11-28 22:56:00
3:56 PM,53.1,39.0,59,30.01,10.0,Variable,3.5,-,0.01,,Mostly Cloudy,0,2012-11-28 23:56:00
4:56 PM,46.9,39.9,77,30.02,10.0,West,4.6,-,N/A,,Partly Cloudy,270,2012-11-29 00:56:00
5:56 PM,45.0,37.9,76,30.01,10.0,NW,3.5,-,N/A,,Partly Cloudy,310,2012-11-29 01:56:00
6:56 PM,39.9,37.0,89,30.04,10.0,NNW,3.5,-,N/A,,Clear,330,2012-11-29 02:56:00
7:56 PM,39.0,36.0,89,30.04,10.0,NNW,3.5,-,N/A,,Clear,340,2012-11-29 03:56:00
8:56 PM,35.1,33.1,92,30.03,10.0,WNW,3.5,-,N/A,,Clear,290,2012-11-29 04:56:00
9:56 PM,35.1,33.1,92,30.00,10.0,NW,9.2,-,N/A,,Clear,320,2012-11-29 05:56:00
10:56 PM,33.1,30.9,92,30.01,10.0,WNW,8.1,-,N/A,,Clear,300,2012-11-29 06:56:00
11:56 PM,30.9,28.9,92,30.02,10.0,NNE,4.6,-,N/A,,Clear,30,2012-11-29 07:56:00